Regional Weather Roundup
Issued by NWS

Home | Current Version | Previous Version | Text Only | Print | Product List | Glossary Off
Versions: 1 2 3 4 5 6 7 8 9 10 11 12 13 14 15 16 17 18 19 20 21 22 23 24 25 26 27 28 29 30 31 32 33 34 35 36 37 38 39 40 41 42 43 44 45 46 47 48 49 50

000
ASUS43 KIND 251209
RWRIN

WEATHER ROUNDUP FOR INDIANA
NATIONAL WEATHER SERVICE INDIANAPOLIS IN
800 AM EDT THU MAY 25 2017

NOTE: "FAIR" INDICATES FEW OR NO CLOUDS BELOW 12,000 FEET WITH NO
SIGNIFICANT WEATHER AND/OR OBSTRUCTIONS TO VISIBILITY.

* - STATION DOES NOT REPORT WEATHER SUCH AS PRECIPITATION OR FOG.

+ - STATION NOT QUALITY CONTROLLED BY THE NATIONAL WEATHER SERVICE.
    USE DATA WITH CAUTION...ESPECIALLY DEWPOINT AND RELATIVE
    HUMIDITY OBSERVATIONS.

INZ001>003-010>013-019-020-251300-
NORTHWEST INDIANA

CITY           SKY/WX    TMP DP  RH WIND       PRES   REMARKS
GARY /AIRPORT/ CLOUDY    54  50  87 NW14      29.57R
KNOX *+        CLOUDY    54  54 100 NW14      29.50S
LA PORTE +     CLOUDY    52  51  98 N13       29.52R FOG
6HR MIN TEMP:  52; 6HR MAX TEMP:  55;

MICHIGAN CITY+ CLOUDY    50  50 100 N9        29.54R
MONTICELLO +   CLOUDY    53  51  95 NW16G22   29.49R FOG
6HR MIN TEMP:  52; 6HR MAX TEMP:  54; 6HR PCP:  0.05;

RENSSELAER +   CLOUDY    54  50  87 NW10G16   29.53R FOG
VALPARAISO     CLOUDY    52  51  97 N10       29.54R FOG
6HR MIN TEMP:  51; 6HR MAX TEMP:  52;


$$

LMZ046-743>745-251300-
SOUTHERN LAKE MICHIGAN

STATION/POSITION TIME  TEMP    WIND        PRES    WAVE
                       AIR SEA DIR/SP/G            HT
                 (UTC) (F)     (DEG/KT/KT) (MB)    (FT)
BURNS HARBOR     1140   49     340/ 18/ 22 1001.0R
MICHIGAN CITY    1140   49     340/ 23/ 26   N/A
5NW MICH CITY    1200   49 52  340/ 17/ 21   N/A     6

$$

INZ004-005-014>016-021>024-251300-
NORTH CENTRAL INDIANA

CITY           SKY/WX    TMP DP  RH WIND       PRES   REMARKS
ELKHART        CLOUDY    57  55  94 N5        29.49R
GOSHEN         CLOUDY    59  54  83 N14       29.47R
6HR MIN TEMP:  58; 6HR MAX TEMP:  59; 6HR PCP:  0.02;

LOGANSPORT +   CLOUDY    54  54 100 NW10      29.48R FOG
PERU/GRISSOM   CLOUDY    59  59 100 NW13      29.44R
6HR MIN TEMP:  57; 6HR MAX TEMP:  59; 6HR PCP:  0.13;

ROCHESTER +    CLOUDY   N/A N/A N/A N12G17    29.48R HAZE
SOUTH BEND     CLOUDY    56  56 100 N12       29.51R
6HR MIN TEMP:  56; 6HR MAX TEMP:  58; 6HR PCP:  0.01;

WARSAW +       CLOUDY    57  55  94 N6        29.46R

$$

INZ006>009-017-018-025>027-251300-
NORTHEAST INDIANA

CITY           SKY/WX    TMP DP  RH WIND       PRES   REMARKS
ANGOLA *+      CLOUDY    57  46  67 N9        29.45S
AUBURN +       CLOUDY    59  55  88 N9        29.45R FOG
FORT WAYNE     CLOUDY    61  58  90 N13       29.42R FOG
6HR MIN TEMP:  58; 6HR MAX TEMP:  61; 6HR PCP:  0.10;

HUNTINGTON +   LGT RAIN  59  58  95 N8        29.42R
                                      6HR PCP:  0.08;

KENDALLVILLE + CLOUDY    58  58 100 N9        29.45S

$$

INZ028-029-035-036-043>045-051>053-251300-
WEST CENTRAL INDIANA

CITY           SKY/WX    TMP DP  RH WIND       PRES   REMARKS
CRAWFORDSVL +  RAIN      52  52 100 NW16G22   29.51R
6HR MIN TEMP:  52; 6HR MAX TEMP:  53; 6HR PCP:  0.01;

GREENCASTLE +  CLOUDY    54  54 100 NW8       29.51R FOG
LAFAYETTE      CLOUDY    54  53  97 NW16G24   29.50R FOG
6HR MIN TEMP:  53; 6HR MAX TEMP:  54; 6HR PCP:  0.04;

TERRE HAUTE    CLOUDY    57  52  83 NW13G22   29.53R
6HR MIN TEMP:  56; 6HR MAX TEMP:  57;


$$

INZ030>032-037>040-046>048-054>057-064-065-251300-
CENTRAL INDIANA

CITY           SKY/WX    TMP DP  RH WIND       PRES   REMARKS
ANDERSON       LGT RAIN N/A N/A N/A E12       29.43
CP ATTERBURY + CLOUDY    55  54  94 W12G22    29.46R
COLUMBUS       LGT RAIN  55  54  94 NW14G21   29.45R FOG
FRANKFORT +    CLOUDY    56  55  97 NW17      29.49S FOG
6HR MIN TEMP:  56; 6HR MAX TEMP:  57; 6HR PCP:  0.19;

GREENWOOD *+   CLOUDY    56  55  94 NW9G17    29.45R
6HR MIN TEMP:  56; 6HR MAX TEMP:  59;

INDIANAPOLIS   DRIZZLE   55  54  96 NW18G25   29.46R FOG
6HR MIN TEMP:  55; 6HR MAX TEMP:  57; 6HR PCP:  0.21;

-EAGLE CREEK   LGT RAIN  56  54  93 NW15      29.45R FOG
6HR MIN TEMP:  56; 6HR MAX TEMP:  58; 6HR PCP:  0.18;

KOKOMO +       LGT RAIN  59  57  93 N14       29.45R
6HR MIN TEMP:  57; 6HR MAX TEMP:  59; 6HR PCP:  0.21;

MARION +       LGT RAIN  57  57 100 N10       29.43R
MT COMFORT *+  CLOUDY    55  55 100 NW15G21   29.43R
SHELBYVILLE    CLOUDY    58  54  86 NW16      29.41R FOG
6HR MIN TEMP:  57; 6HR MAX TEMP:  60; 6HR PCP:  0.59;

ZIONSVILLE +   CLOUDY    54  54  99 NW14G20   29.47R FOG
6HR MIN TEMP:  54; 6HR MAX TEMP:  55; 6HR PCP:  0.24;


$$

INZ033-034-041-042-049-050-058-059-251300-
EAST CENTRAL INDIANA

CITY           SKY/WX    TMP DP  RH WIND       PRES   REMARKS
MUNCIE         LGT RAIN  60  58  92 N3        29.40R FOG
6HR MIN TEMP:  58; 6HR MAX TEMP:  60;

RICHMOND +     CLOUDY    55  55 100 N3        29.40R

$$

INZ060-061-067>069-081>083-085>088-251300-
SOUTHWEST INDIANA

CITY           SKY/WX    TMP DP  RH WIND       PRES   REMARKS
EVANSVILLE     CLOUDY    59  54  83 W10       29.60R
6HR MIN TEMP:  59; 6HR MAX TEMP:  60;

HUNTINGBURG *+ LGT RAIN  58  55  90 NW13      29.56R
6HR MIN TEMP:  57; 6HR MAX TEMP:  58; 6HR PCP:  0.01;

WASHINGTON +   CLOUDY    58  55  88 W13       29.54R
6HR MIN TEMP:  57; 6HR MAX TEMP:  58; 6HR PCP:  0.01;


$$

INZ062-063-066-070>080-084-089>092-251300-
SOUTH CENTRAL AND SOUTHEAST INDIANA

CITY           SKY/WX    TMP DP  RH WIND       PRES   REMARKS
BLOOMINGTON    CLOUDY    57  53  86 NW15G25   29.49R FOG
6HR MIN TEMP:  56; 6HR MAX TEMP:  57; 6HR PCP:  0.01;

MADISON *+     CLOUDY    55  54  94 W9        29.46R
NORTH VERNON + DRIZZLE   55  54  94 W14       29.44R

$$





USA.gov is the U.S. government's official web portal to all federal, state and local government web resources and services.